Regional Weather Roundup
Issued by NWS

Home | Current Version | Previous Version | Text Only | Print | Product List | Glossary On
Versions: 1 2 3 4 5 6 7 8 9 10 11 12 13 14 15 16 17 18 19 20 21 22 23 24 25 26 27 28 29 30 31 32 33 34 35 36 37 38 39 40 41 42 43 44 45 46 47 48 49 50
000
ASUS46 KSEW 161810
RWRWA

WASHINGTON REGIONAL WEATHER ROUNDUP
NATIONAL WEATHER SERVICE SEATTLE WA
1000 AM PST MON JAN 16 2017

NOTE:"FAIR" INDICATES FEW OR NO CLOUDS BELOW 12,000 FEET WITH NO
SIGNIFICANT WEATHER AND/OR OBSTRUCTIONS TO VISIBILITY.

WAZ507-509-555>559-161900-
SEATTLE, TACOMA, EVERETT, AND VICINITY

CITY           SKY/WX    TMP DP  RH WIND       PRES   REMARKS
EVERETT        MOSUNNY   39  23  52 SE7       30.15F
6HR MIN TEMP:  31; 6HR MAX TEMP:  39;

BOEING FIELD   MOSUNNY   36  29  75 CALM      30.18F
6HR MIN TEMP:  28; 6HR MAX TEMP:  36;

RENTON         CLOUDY    34  28  79 CALM      30.18F
6HR MIN TEMP:  30; 6HR MAX TEMP:  34;

SEATAC AIRPORT MOSUNNY   37  28  70 SW5       30.17F
6HR MIN TEMP:  30; 6HR MAX TEMP:  37;

JBLM-MCCHORD   MOSUNNY   30  29  99 CALM      30.18S
6HR MIN TEMP:  23; 6HR MAX TEMP:  30;

PUYALLUP         N/A     36  34  93 CALM      30.16F
BREMERTON      SUNNY     36  32  87 S5        30.20F
6HR MIN TEMP:  25; 6HR MAX TEMP:  36;

JBLM-FT LEWIS  MOSUNNY   30  30  99 CALM      30.17F
6HR MIN TEMP:  24; 6HR MAX TEMP:  30;

TACOMA NARROWS MOSUNNY   34  32  92 CALM      30.18F
6HR MIN TEMP:  29; 6HR MAX TEMP:  34;

$$

WAZ001-503-506-510-514-515-161900-
NORTH INTERIOR

CITY           SKY/WX    TMP DP  RH WIND       PRES   REMARKS
BELLINGHAM     CLOUDY    37  30  75 CALM      30.15F
6HR MIN TEMP:  30; 6HR MAX TEMP:  37;

FRIDAY HARBOR  CLOUDY    42  30  62 SE8       30.16F
6HR MIN TEMP:  35; 6HR MAX TEMP:  42;

EASTSOUND      MOSUNNY   41  32  70 CALM      30.14F
PORT ANGELES   MOSUNNY   35  33  92 CALM      30.11F
6HR MIN TEMP:  31; 6HR MAX TEMP:  35; 6HR PCP: TRACE;

EDIZ HOOK      FAIR      40  35  82 CALM      30.13F
6HR MIN TEMP:  37; 6HR MAX TEMP:  40;

PORT TOWNSEND    N/A     37  34  87 CALM      30.16S
NAS WHIDBEY    CLOUDY    43  27  53 SE10      30.19F
6HR MIN TEMP:  35; 6HR MAX TEMP:  44;

ARLINGTON      NOT AVBL
BURLINGTON     CLOUDY    37  30  75 CALM      30.16F
$$

WAZ020-022-039-040-504-511-512-161900-
SOUTHWEST INTERIOR

CITY           SKY/WX    TMP DP  RH WIND       PRES   REMARKS
SHELTON        CLOUDY    36  30  79 N3        30.15F
6HR MIN TEMP:  25; 6HR MAX TEMP:  36;

OLYMPIA        PTSUNNY   32  26  78 S5        30.18F
6HR MIN TEMP:  26; 6HR MAX TEMP:  32;

CHEHALIS       FAIR      30  23  74 S8        30.20S
KELSO          PTSUNNY   26  18  71 S9G20     30.27R
6HR MIN TEMP:  24; 6HR MAX TEMP:  26;

VANCOUVER      SUNNY     25  15  66 SE9       30.29R
6HR MIN TEMP:  23; 6HR MAX TEMP:  26;

SCAPPOOSE, OR  PTSUNNY   25  16  68 S8        30.28S
6HR MIN TEMP:  23; 6HR MAX TEMP:  25;

PORTLAND, OR   MOSUNNY   24  14  65 SE15      30.29R WCI  11
6HR MIN TEMP:  22; 6HR MAX TEMP:  25;

$$

WAZ021-516-517-161900-
WASHINGTON COAST

CITY           SKY/WX    TMP DP  RH WIND       PRES   REMARKS
FORKS          CLOUDY    39  31  72 NE3       30.10F
6HR MIN TEMP:  34; 6HR MAX TEMP:  39;

HOQUIAM        CLOUDY    35  30  82 E10       30.15S WCI  27
6HR MIN TEMP:  31; 6HR MAX TEMP:  35;

ASTORIA, OR    PTSUNNY   39  26  59 CALM      30.16S
6HR MIN TEMP:  33; 6HR MAX TEMP:  39;

$$

WAZ019-023-024-040-567>569-161900-
CASCADE MOUNTAINS AND COLUMBIA GORGE

CITY           SKY/WX    TMP DP  RH WIND       PRES   REMARKS
STAMPEDE PASS  NOT AVBL
TROUTDALE, OR  SUNNY     24  14  65 E23G39    30.29R WCI   9
6HR MIN TEMP:  22; 6HR MAX TEMP:  24;

THE DALLES, OR CLOUDY    15  10  80 CALM      30.59S HAZE
6HR MIN TEMP:  12; 6HR MAX TEMP:  15; 6HR PCP: TRACE;

$$

WAZ026-027-041>044-520-521-161900-
EAST SLOPES

CITY           SKY/WX    TMP DP  RH WIND       PRES   REMARKS
OMAK           CLOUDY    20  13  74 S8        30.45S
6HR MIN TEMP:  19; 6HR MAX TEMP:  19;

WENATCHEE      LGT SNOW  12   9  87 E9        30.48R FOG
6HR MIN TEMP:  12; 6HR MAX TEMP:  13; 6HR PCP: TRACE;

ELLENSBURG     LGT SNOW  15   9  76 CALM      30.43S
6HR MIN TEMP:  14; 6HR MAX TEMP:  15; 6HR PCP: TRACE;

YAKIMA         LGT SNOW  17  11  77 CALM      30.50S
6HR MIN TEMP:  15; 6HR MAX TEMP:  17; 6HR PCP: TRACE;

$$

WAZ028-034-035-161900-
COLUMBIA BASIN

CITY           SKY/WX    TMP DP  RH WIND       PRES   REMARKS
EPHRATA        LGT SNOW  11   5  77 CALM      30.48S
6HR MIN TEMP:  10; 6HR MAX TEMP:  11; 6HR PCP: TRACE;

MOSES LAKE     LGT SNOW  11   6  81 CALM      30.50F
6HR MIN TEMP:  10; 6HR MAX TEMP:  11; 6HR PCP: TRACE;

PASCO          LGT SNOW  15  10  80 N3        30.60R
6HR MIN TEMP:  11; 6HR MAX TEMP:  15; 6HR PCP: TRACE;

HERMISTON, OR  LGT SNOW  11   7  84 SE5       30.55R FOG
6HR MIN TEMP:  10; 6HR MAX TEMP:  12; 6HR PCP: TRACE;

$$

WAZ036>038-161900-
NORTHEAST WASHINGTON

CITY           SKY/WX    TMP DP  RH WIND       PRES   REMARKS
SPOKANE GEIGER SNOW       6   3  87 W3        30.37S VSB 1/2
6HR MIN TEMP:   0; 6HR MAX TEMP:   7; 6HR PCP: TRACE;

SPOKANE FELTS  FOG       10   9  95 CALM      30.43S VSB 1/4
6HR MIN TEMP:   5; 6HR MAX TEMP:  11; 6HR PCP: TRACE;

FAIRCHILD AFB  SNOW       5   3  92 CALM      30.36R VSB 0
                                      6HR PCP: TRACE;

COEURDALENE,ID CLOUDY    20  18  92 NE7       30.38F
6HR MIN TEMP:   9; 6HR MAX TEMP:  20;

DEER PARK      CLOUDY     7   4  87 SW5       30.40S FOG
6HR MIN TEMP:   1; 6HR MAX TEMP:   7;

$$

WAZ029>033-161900-
SOUTHEAST WASHINGTON

CITY           SKY/WX    TMP DP  RH WIND       PRES   REMARKS
PULLMAN        MOSUNNY   17  12  80 E12       30.36F WCI   4
6HR MIN TEMP:  -2; 6HR MAX TEMP:  17;

LEWISTON, ID   PTSUNNY   10   9  95 CALM      30.48R
6HR MIN TEMP:   9; 6HR MAX TEMP:  11; 6HR PCP: TRACE;

WALLA WALLA    LGT SNOW  12   6  77 E5        30.49R
6HR MIN TEMP:   9; 6HR MAX TEMP:  12; 6HR PCP: TRACE;

PENDLETON, OR  LGT SNOW   9   7  92 S5        30.46R FOG
6HR MIN TEMP:   4; 6HR MAX TEMP:   9; 6HR PCP: TRACE;

$$



USA.gov is the U.S. government's official web portal to all federal, state and local government web resources and services.